This is the latest recevied weather packets stored in our database for station/object KE2HEH. If no packets are shown the sender has not sent any weather packets the latest 10 day(s).
| Time | Temp. | Humidity | Pressure | Rain* | Wind** | Luminosity | Snow |
|---|---|---|---|---|---|---|---|
| 1778255740 | 12.22° C | 75% | 1013.6 hPa | 0 mm | - | 605 W/m² | - |
| 1778255437 | 12.78° C | 74% | 1013.6 hPa | 0 mm | - | 587 W/m² | - |
| 1778255134 | 12.78° C | 75% | 1013.5 hPa | 0 mm | - | 592 W/m² | - |
| 1778254831 | 12.78° C | 73% | 1013.6 hPa | 0 mm | - | 607 W/m² | - |
| 1778254527 | 12.78° C | 72% | 1013.7 hPa | 0 mm | - | 619 W/m² | - |
| 1778254224 | 12.78° C | 73% | 1013.7 hPa | 0 mm | - | 619 W/m² | - |
| 1778253921 | 12.78° C | 73% | 1013.4 hPa | 0 mm | - | 618 W/m² | - |
| 1778253617 | 12.22° C | 74% | 1013.5 hPa | 0 mm | - | 622 W/m² | - |
| 1778253314 | 12.22° C | 74% | 1013.6 hPa | 0 mm | - | 647 W/m² | - |
| 1778253010 | 12.78° C | 74% | 1013.7 hPa | 0 mm | - | 449 W/m² | - |
| 1778252708 | 12.22° C | 74% | 1013.5 hPa | 0 mm | - | 664 W/m² | - |
| 1778252403 | 12.22° C | 74% | 1013.5 hPa | 0 mm | - | 654 W/m² | - |
| 1778252100 | 12.22° C | 75% | 1013.6 hPa | 0 mm | - | 651 W/m² | - |
| 1778251796 | 12.22° C | 75% | 1013.8 hPa | 0 mm | - | 660 W/m² | - |
| 1778251494 | 12.22° C | 76% | 1013.6 hPa | 0 mm | - | 663 W/m² | - |
| 1778251191 | 12.22° C | 76% | 1013.9 hPa | 0 mm | - | 656 W/m² | - |
| 1778250889 | 11.67° C | 77% | 1013.8 hPa | 0 mm | - | 661 W/m² | - |
| 1778250585 | 11.67° C | 79% | 1013.9 hPa | 0 mm | - | 656 W/m² | - |
| 1778250282 | 11.67° C | 79% | 1013.7 hPa | 0 mm | - | 649 W/m² | - |
| 1778249979 | 11.67° C | 78% | 1013.9 hPa | 0 mm | - | 619 W/m² | - |
| 1778249675 | 11.67° C | 79% | 1013.7 hPa | 0 mm | - | 605 W/m² | - |
| 1778249373 | 11.67° C | 80% | 1013.6 hPa | 0 mm | - | 620 W/m² | - |
| 1778249070 | 11.67° C | 80% | 1013.9 hPa | 0 mm | - | 620 W/m² | - |
| 1778248765 | 11.67° C | 79% | 1013.9 hPa | 0 mm | - | 596 W/m² | - |
| 1778248462 | 11.67° C | 78% | 1013.9 hPa | 0 mm | - | 586 W/m² | - |
* Rain latest hour (hover to see other rain measurements)
** Current wind speed in m/s (hover to see current wind gust speed)